[[{"header":{"parameterUnit":"m.s-1","parameterCategory":1,"la1":30.2991,"la2":30.254,"lo1":-89.0895,"lo2":-89.0444,"dy":0.0017,"dx":0.0017,"nx":28,"ny":28,"refTime":"2024-05-19T09:00:00:Z","depth":0,"parameterNumber":2,"parameterNumberName":"U-component_of_WINDS"},"data":[0,0,0,0,0,0,0,0,0,0,0,0,0,0,0,0,0,0,0,0,0,0,0,0,0,0,0,0,0,0,0,0,0,0,0,0,0,0,0,0,0,0,0,0,0,0,0,0,0,0,0,0,0,0,0,0,0,0,-0.4849,-0.4849,0,-0.4818,-0.4817,-0.4817,-0.4797,-0.4797,-0.4797,-0.4797,-0.4766,-0.4765,-0.4764,0,0,0,0,0,0,0,0,0,0,0,0,0,-0.4894,-0.4893,-0.4849,-0.4849,-0.4848,-0.4818,-0.4817,-0.4817,-0.4797,-0.4797,-0.4797,-0.4797,-0.4766,-0.4765,-0.4764,0,0,0,0,0,0,0,0,0,0,0,0,0,-0.487,-0.4893,-0.4849,-0.4835,-0.4833,-0.4818,-0.4817,-0.4817,-0.4797,-0.4797,-0.4797,-0.4797,-0.4766,-0.4765,-0.4764,-0.4761,0,0,-0.4761,-0.4761,0,0,0,0,0,0,0,0,-0.4871,-0.4868,-0.4837,-0.4836,-0.4834,-0.4811,-0.4822,-0.4798,-0.4797,-0.4811,-0.4797,-0.4796,-0.4781,-0.4779,-0.4773,-0.476,-0.4759,-0.4761,-0.476,-0.476,-0.4759,0,0,0,0,0,0,0,-0.4873,-0.4869,-0.4837,-0.4837,-0.4835,-0.483,-0.4827,-0.4817,-0.4797,-0.481,-0.4808,-0.4805,-0.478,-0.4774,-0.4773,-0.4758,-0.4761,-0.476,-0.4759,-0.4759,-0.4742,-0.4742,0,0,0,0,0,0,-0.4876,-0.4871,-0.4838,-0.4836,-0.4852,-0.483,-0.4826,-0.4819,-0.4797,-0.4794,-0.4805,-0.4804,-0.4776,-0.4774,-0.4771,-0.4767,-0.476,-0.4759,-0.4758,-0.4742,-0.4742,-0.4742,0,0,0,0,0,0,-0.4877,-0.4874,-0.4839,-0.4853,-0.4848,-0.4829,-0.4821,-0.4818,-0.4812,-0.4794,-0.479,-0.4802,-0.4776,-0.4773,-0.4764,-0.4766,-0.4758,-0.4757,-0.4742,-0.4742,-0.4742,-0.4759,0,0,0,0,0,0,-0.4879,-0.4874,-0.4872,-0.4853,-0.4847,-0.4832,-0.4821,-0.4818,-0.481,-0.4809,-0.4791,-0.4788,-0.4776,-0.4766,-0.4763,-0.4764,-0.4757,-0.4741,-0.4742,-0.4742,-0.4758,-0.476,-0.4761,0,0,0,0,0,-0.488,-0.4878,-0.4872,-0.4869,-0.4845,-0.4832,-0.4829,-0.4815,-0.4811,-0.4809,-0.4797,-0.4788,-0.4766,-0.4765,-0.4762,-0.4763,-0.4741,-0.4742,-0.4742,-0.4757,-0.4759,-0.4761,0,0,0,0,0,0,-0.4899,-0.4876,-0.4869,-0.486,-0.4848,-0.4829,-0.4826,-0.4817,-0.4807,-0.4806,-0.4789,-0.4785,-0.4779,-0.477,-0.4769,-0.4759,-0.4753,-0.4752,-0.4765,-0.4767,-0.4769,-0.4771,-0.4756,0,0,0,0,0,-0.4902,-0.4893,-0.4873,-0.4868,-0.4862,-0.4845,-0.4839,-0.4829,-0.4817,-0.4812,-0.4799,-0.4787,-0.4778,-0.4772,-0.4762,-0.4757,-0.4753,-0.4756,-0.4757,-0.4759,-0.4759,-0.4756,-0.4757,-0.4744,-0.4744,-0.4744,0,0,-0.4908,-0.4894,-0.4889,-0.4871,-0.486,-0.4852,-0.4841,-0.4833,-0.4827,-0.481,-0.4801,-0.4792,-0.4778,-0.4771,-0.4767,-0.4764,-0.4762,-0.4759,-0.476,-0.476,-0.4757,-0.4758,-0.4759,-0.4744,-0.4744,-0.4744,0,0,-0.4915,-0.4903,-0.4898,-0.4888,-0.4872,-0.4861,-0.486,-0.4842,-0.4835,-0.4826,-0.4813,-0.4806,-0.479,-0.4781,-0.4774,-0.4779,-0.477,-0.4776,-0.4784,-0.4781,-0.4783,-0.4783,-0.4786,-0.4787,-0.4776,-0.4776,-0.4776,0,-0.4925,-0.4911,-0.4896,-0.4888,-0.4881,-0.4866,-0.4861,-0.4852,-0.4834,-0.483,-0.4825,-0.4805,-0.4795,-0.4786,-0.4787,-0.4782,-0.4781,-0.4778,-0.4784,-0.4784,-0.4785,-0.4787,-0.4788,-0.4777,-0.4777,-0.4777,-0.4777,0,-0.4924,-0.4915,-0.4913,-0.4896,-0.4888,-0.4882,-0.4866,-0.4861,-0.4852,-0.4842,-0.4833,-0.482,-0.4808,-0.4805,-0.4796,-0.4795,-0.4793,-0.4787,-0.4779,-0.4787,-0.4789,-0.479,-0.4778,-0.4778,-0.4778,-0.4777,0,0,-0.4941,-0.4917,-0.4916,-0.4909,-0.4891,-0.4884,-0.4877,-0.4865,-0.4861,-0.4849,-0.4844,-0.4831,-0.4825,-0.4817,-0.4807,-0.4805,-0.4811,-0.4799,-0.4798,-0.4802,-0.481,-0.4815,-0.4816,-0.4805,-0.4805,-0.4805,-0.4811,0,-0.4946,-0.4933,-0.492,-0.4912,-0.4904,-0.489,-0.4884,-0.4873,-0.4863,-0.4856,-0.4845,-0.4837,-0.4829,-0.4824,-0.4822,-0.4811,-0.4812,-0.481,-0.4801,-0.48,-0.4805,-0.4817,-0.4822,-0.4829,-0.4812,-0.4812,-0.4812,0,-0.495,-0.4939,-0.493,-0.4914,-0.491,-0.4905,-0.4893,-0.4886,-0.4873,-0.4867,-0.4858,-0.4848,-0.4842,-0.4835,-0.4826,-0.4825,-0.4821,-0.4815,-0.4815,-0.4813,-0.4807,-0.4817,-0.483,-0.4832,-0.4813,-0.4812,-0.4812,0,-0.4964,-0.4947,-0.494,-0.4934,-0.4914,-0.4911,-0.4903,-0.4891,-0.4884,-0.4874,-0.487,-0.486,-0.4854,-0.4846,-0.4834,-0.483,-0.4827,-0.4819,-0.4821,-0.4822,-0.4821,-0.4822,-0.4835,-0.4818,-0.4818,-0.4818,-0.4818,0,-0.4971,-0.4966,-0.4946,-0.4941,-0.4936,-0.4921,-0.4917,-0.4907,-0.4896,-0.489,-0.4878,-0.4873,-0.4856,-0.485,-0.484,-0.4834,-0.4832,-0.4827,-0.4824,-0.4828,-0.4829,-0.4825,-0.4824,-0.4818,-0.4818,-0.4818,-0.4818,0,-0.4986,-0.4972,-0.4963,-0.4946,-0.4941,-0.4938,-0.4923,-0.4919,-0.4909,-0.4902,-0.4899,-0.4884,-0.4875,-0.4862,-0.485,-0.4843,-0.484,-0.4835,-0.4844,-0.4842,-0.4846,-0.4846,-0.4857,-0.4859,-0.484,-0.4841,-0.4841,0,-0.4991,-0.4987,-0.4969,-0.4964,-0.4956,-0.4949,-0.4942,-0.4928,-0.4922,-0.4908,-0.4906,-0.4896,-0.4888,-0.4875,-0.4863,-0.4853,-0.4849,-0.4854,-0.4848,-0.4852,-0.485,-0.485,-0.485,-0.4855,-0.4856,-0.4856,-0.4856,0,-0.5002,-0.4996,-0.4987,-0.4976,-0.4969,-0.4959,-0.495,-0.4947,-0.493,-0.4924,-0.4915,-0.4909,-0.4896,-0.4887,-0.4877,-0.4869,-0.486,-0.4858,-0.4858,-0.4862,-0.4868,-0.4865,-0.4848,-0.4858,-0.4858,-0.4858,-0.4857,-0.4857,-0.5013,-0.5009,-0.4996,-0.4987,-0.4978,-0.4969,-0.4965,-0.4954,-0.4946,-0.4935,-0.4927,-0.4919,-0.4907,-0.4892,-0.4885,-0.4879,-0.4875,-0.4875,-0.4875,-0.4875,-0.4877,-0.4868,-0.4877,-0.4877,-0.4876,-0.4876,-0.4876,0,-0.5024,-0.5015,-0.5007,-0.4993,-0.4987,-0.4979,-0.4968,-0.4963,-0.4955,-0.4945,-0.4937,-0.4928,-0.4919,-0.4907,-0.4897,-0.4895,-0.4891,-0.4893,-0.4893,-0.4892,-0.4881,-0.4882,-0.4897,-0.4897,-0.4897,-0.4897,-0.4897,-0.4897,-0.5029,-0.5022,-0.5014,-0.5004,-0.4995,-0.4987,-0.4981,-0.4974,-0.4966,-0.4955,-0.4948,-0.494,-0.4929,-0.4919,-0.4911,-0.4908,-0.4905,-0.4909,-0.4905,-0.4894,-0.4893,-0.4891,-0.4892,-0.4909,-0.4909,-0.4916,-0.4916,-0.4916]},{"header":{"parameterUnit":"m.s-1","parameterCategory":1,"la1":30.2991,"la2":30.254,"lo1":-89.0895,"lo2":-89.0444,"dy":0.0017,"dx":0.0017,"nx":28,"ny":28,"refTime":"2024-05-19T09:00:00:Z","depth":0,"parameterNumber":3,"parameterNumberName":"V-component_of_WINDS"},"data":[0,0,0,0,0,0,0,0,0,0,0,0,0,0,0,0,0,0,0,0,0,0,0,0,0,0,0,0,0,0,0,0,0,0,0,0,0,0,0,0,0,0,0,0,0,0,0,0,0,0,0,0,0,0,0,0,0,0,2.5196,2.5195,0,2.5168,2.5167,2.5167,2.5121,2.512,2.5119,2.5118,2.509,2.509,2.509,0,0,0,0,0,0,0,0,0,0,0,0,0,2.5209,2.5209,2.5196,2.5195,2.5195,2.5168,2.5167,2.5167,2.5121,2.512,2.5119,2.5118,2.509,2.509,2.509,0,0,0,0,0,0,0,0,0,0,0,0,0,2.5195,2.5209,2.5196,2.5169,2.5166,2.5168,2.5167,2.5167,2.5121,2.512,2.5119,2.5117,2.509,2.509,2.509,2.5117,0,0,2.5091,2.5091,0,0,0,0,0,0,0,0,2.5195,2.5194,2.5173,2.517,2.5167,2.5146,2.5162,2.515,2.5122,2.5138,2.5118,2.5117,2.511,2.5108,2.5106,2.5115,2.5114,2.5091,2.5091,2.5091,2.5091,0,0,0,0,0,0,0,2.5196,2.5195,2.5185,2.5173,2.5169,2.5158,2.5154,2.5159,2.5132,2.5137,2.5133,2.5131,2.5108,2.5106,2.5105,2.5114,2.5091,2.5091,2.5091,2.5091,2.5143,2.5144,0,0,0,0,0,0,2.5201,2.5196,2.5185,2.5184,2.5179,2.5159,2.5155,2.5154,2.5132,2.5127,2.5132,2.5128,2.5107,2.5105,2.5104,2.5133,2.5091,2.5091,2.5091,2.5141,2.5143,2.5144,0,0,0,0,0,0,2.5202,2.5201,2.5187,2.5189,2.5186,2.516,2.516,2.5155,2.5152,2.5128,2.5123,2.5134,2.5106,2.5104,2.5114,2.5131,2.5091,2.5091,2.514,2.5142,2.5144,2.5191,0,0,0,0,0,0,2.5202,2.5201,2.5211,2.519,2.5186,2.5197,2.5161,2.5155,2.5152,2.5148,2.5129,2.5125,2.5104,2.5114,2.5114,2.513,2.5091,2.5138,2.5141,2.5143,2.5188,2.5194,2.52,0,0,0,0,0,2.5203,2.5226,2.5212,2.5211,2.5198,2.5198,2.5196,2.5172,2.5154,2.5164,2.5148,2.5125,2.5129,2.5115,2.5115,2.5132,2.5137,2.514,2.5143,2.5185,2.5193,2.52,0,0,0,0,0,0,2.525,2.5222,2.5207,2.5223,2.5213,2.519,2.5201,2.5182,2.5177,2.5173,2.5144,2.514,2.5154,2.5144,2.5128,2.5156,2.513,2.5133,2.5162,2.5169,2.5175,2.5177,2.5091,0,0,0,0,0,2.5262,2.5265,2.524,2.5257,2.5253,2.5228,2.5227,2.521,2.5198,2.5194,2.5179,2.5169,2.5168,2.5168,2.5166,2.5186,2.5181,2.5197,2.5204,2.5209,2.5212,2.5221,2.5228,2.5154,2.5154,2.5154,0,0,2.5288,2.5273,2.5276,2.5266,2.5256,2.5259,2.5225,2.523,2.5232,2.5195,2.5203,2.5192,2.5179,2.5194,2.52,2.5186,2.5231,2.5212,2.5217,2.5217,2.5225,2.5232,2.5238,2.5156,2.5156,2.5155,0,0,2.5335,2.5324,2.5337,2.5328,2.5313,2.5297,2.53,2.528,2.5271,2.5279,2.5251,2.5253,2.5252,2.5244,2.5239,2.5284,2.5263,2.5284,2.5316,2.5325,2.5331,2.5336,2.5351,2.5357,2.5287,2.5287,2.5287,0,2.5368,2.5372,2.5346,2.5352,2.5348,2.5315,2.5327,2.532,2.5306,2.5304,2.5289,2.5287,2.5276,2.5288,2.5299,2.5296,2.5299,2.5286,2.5332,2.5337,2.5341,2.5356,2.5362,2.5289,2.5289,2.5289,2.5289,0,2.5413,2.5416,2.5428,2.5415,2.5412,2.5422,2.5397,2.5398,2.5381,2.5366,2.5374,2.5359,2.5353,2.5355,2.5338,2.5365,2.5357,2.5338,2.5311,2.5351,2.5364,2.537,2.5293,2.5292,2.5291,2.5291,0,0,2.549,2.5462,2.5467,2.546,2.5442,2.5444,2.5451,2.5445,2.5446,2.5438,2.5444,2.5443,2.5425,2.542,2.5402,2.5411,2.5446,2.539,2.5389,2.5401,2.5474,2.5489,2.5496,2.5432,2.5433,2.5434,2.5475,0,2.5533,2.5545,2.5522,2.5539,2.5541,2.5509,2.5516,2.5506,2.5492,2.5492,2.5476,2.5476,2.5452,2.5449,2.5456,2.544,2.546,2.5437,2.5437,2.5437,2.5441,2.5503,2.5518,2.5558,2.548,2.5481,2.5482,0,2.5586,2.5579,2.5597,2.5577,2.5577,2.5584,2.5576,2.5577,2.5564,2.5553,2.5548,2.5526,2.5533,2.5507,2.5515,2.5499,2.5498,2.549,2.5491,2.549,2.5462,2.5503,2.557,2.5576,2.5489,2.5489,2.5488,0,2.5639,2.5635,2.5645,2.5641,2.5618,2.5623,2.5614,2.56,2.5598,2.5592,2.559,2.5584,2.5581,2.5577,2.5555,2.5538,2.5565,2.5538,2.5556,2.5557,2.5563,2.5563,2.5631,2.5563,2.5563,2.5563,2.5563,0,2.569,2.5702,2.5669,2.5675,2.5687,2.566,2.5673,2.5661,2.5649,2.5652,2.5624,2.5628,2.5598,2.5598,2.5581,2.559,2.5589,2.558,2.5575,2.5582,2.5584,2.5581,2.5578,2.5564,2.5564,2.5564,2.5563,0,2.5752,2.573,2.5739,2.5717,2.5712,2.5722,2.5703,2.5707,2.5692,2.5696,2.5695,2.5671,2.5669,2.5647,2.5641,2.5629,2.5645,2.5635,2.5649,2.5646,2.5666,2.5664,2.5734,2.5742,2.5669,2.567,2.5671,0,2.5786,2.5794,2.5773,2.5773,2.5765,2.5766,2.5763,2.5737,2.5736,2.5722,2.5728,2.5724,2.572,2.572,2.5701,2.5696,2.5686,2.5711,2.5685,2.5692,2.5686,2.5686,2.5686,2.5716,2.5717,2.5718,2.5719,0,2.5849,2.5837,2.5835,2.5828,2.5826,2.582,2.5812,2.5813,2.5784,2.5784,2.5782,2.5779,2.5773,2.5769,2.5761,2.5751,2.573,2.5727,2.5731,2.5738,2.5746,2.5742,2.5664,2.5725,2.5725,2.5724,2.5724,2.5723,2.5897,2.5903,2.5889,2.5887,2.5878,2.5871,2.5874,2.5859,2.5857,2.585,2.5834,2.5835,2.5822,2.5808,2.5801,2.5801,2.5788,2.5794,2.5795,2.5797,2.5801,2.5746,2.5799,2.5799,2.5799,2.5798,2.5798,0,2.5958,2.5947,2.5946,2.5935,2.5934,2.5914,2.5904,2.5904,2.5905,2.5894,2.589,2.5888,2.5885,2.5866,2.586,2.5864,2.5854,2.5863,2.5863,2.5861,2.5813,2.581,2.5871,2.5871,2.5871,2.5871,2.5871,2.5871,2.599,2.5998,2.5985,2.5989,2.5978,2.5979,2.5975,2.5968,2.596,2.5959,2.5956,2.5943,2.5929,2.5922,2.5918,2.5913,2.5912,2.5924,2.5916,2.5871,2.5864,2.5858,2.5854,2.5925,2.5925,2.5964,2.5964,2.5964]}]]